Weather History for Springfield, IL

Change the Weather History Date:

Thursday, August 23, 2012

  Actual Average Record
Temperature  
Mean Temperature 80 °F 74 °F  
Max Temperature 97 °F 85 °F 101 °F (1936)
Min Temperature 63 °F 63 °F 48 °F (1890)
Degree Days  
Heating Degree Days 0 0  
Month to date heating degree days 0  
Since 1 June heating degree days 16  
Since 1 July heating degree days 1  
Cooling Degree Days 15 9  
Month to date cooling degree days 217 224  
Year to date cooling degree days 1294 903  
Since 1 June cooling degree days 1037 799  
Growing Degree Days 31 (Base 50)    
Moisture  
Dew Point 54 °F    
Average Humidity 45    
Maximum Humidity 68    
Minimum Humidity 22    
Precipitation  
Precipitation 0.00 in 0.10 in 1.44 in (2002)
Month to date precipitation 1.26 2.42  
Year to date precipitation 16.05 24.83  
Snow  
Snow 0.00 in 0.00 in 0.00 in ()
Month to date snowfall 0.0 0.0  
Since 1 June snowfall 0.0 0.0  
Since 1 July snowfall 0.0 0.0  
Snow Depth 0.00 in    
Sea Level Pressure  
Sea Level Pressure 30.03 in    
Wind  
Wind Speed 7 mph (South)    
Max Wind Speed 15 mph    
Max Gust Speed 18 mph    
Visibility 10 miles    
Events      
T = Trace of Precipitation, MM = Missing Value Source: NWS Daily Summary

Daily Weather History Graph

Daily Weather History Graph

Search for Another Location

Airport:

Trip Planner

Search our weather history database for the weather conditions in past years. The results will help you decide how hot, cold, wet, or windy it might be!

Date:

Astronomy

Aug. 23, 2012 Rise Set
Actual Time 6:18 AM CDT 7:43 PM CDT
Civil Twilight 5:50 AM CDT 8:11 PM CDT
Nautical Twilight 5:16 AM CDT 8:45 PM CDT
Astronomical Twilight 4:40 AM CDT 9:20 PM CDT
Moon 1:05 PM CDT (8/23) 11:12 PM CDT (8/23)
Length of Visible Light 14h 20m
Length of Day
13h 24m
Waxing Crescent, 40% of the Moon is Illuminated
Aug 23
Waxing Crescent
Aug 24
First Quarter
Aug 31
Full
Sep 8
Last Quarter
Sep 15
New

Hourly Weather History & Observations

Time (CDT) Temp. Heat Index Dew Point Humidity Pressure Visibility Wind Dir Wind Speed Gust Speed Precip Events Conditions
12:52 AM 68.0 °F - 51.1 °F 55% 30.04 in 10.0 mi SSE 4.6 mph - N/A   Clear
1:52 AM 69.1 °F - 51.1 °F 53% 30.04 in 10.0 mi South 6.9 mph - N/A   Scattered Clouds
2:52 AM 70.0 °F - 52.0 °F 53% 30.04 in 10.0 mi South 4.6 mph - N/A   Scattered Clouds
3:52 AM 66.9 °F - 53.1 °F 61% 30.04 in 10.0 mi South 5.8 mph - N/A   Clear
4:52 AM 68.0 °F - 54.0 °F 61% 30.04 in 10.0 mi South 3.5 mph - N/A   Clear
5:52 AM 66.0 °F - 54.0 °F 65% 30.05 in 10.0 mi SSW 3.5 mph - N/A   Clear
6:52 AM 66.0 °F - 55.0 °F 68% 30.06 in 10.0 mi South 4.6 mph - N/A   Clear
7:52 AM 72.0 °F - 55.9 °F 57% 30.07 in 10.0 mi South 4.6 mph - N/A   Clear
8:52 AM 78.1 °F - 57.9 °F 50% 30.08 in 10.0 mi South 9.2 mph - N/A   Clear
9:52 AM 84.0 °F 83.5 °F 57.9 °F 41% 30.09 in 10.0 mi SW 8.1 mph - N/A   Clear
10:52 AM 89.1 °F 87.7 °F 57.0 °F 34% 30.08 in 10.0 mi South 8.1 mph - N/A   Clear
11:52 AM 91.9 °F 89.5 °F 53.1 °F 27% 30.06 in 10.0 mi Variable 6.9 mph - N/A   Clear
12:52 PM 93.9 °F - 52.0 °F 24% 30.05 in 10.0 mi Variable 5.8 mph - N/A   Clear
1:52 PM 95.0 °F - 51.1 °F 22% 30.03 in 10.0 mi SW 9.2 mph 18.4 mph N/A   Clear
2:52 PM 96.1 °F - 52.0 °F 22% 30.01 in 10.0 mi SW 5.8 mph - N/A   Partly Cloudy
3:52 PM 95.0 °F - 50.0 °F 22% 30.00 in 10.0 mi Variable 4.6 mph - N/A   Clear
4:52 PM 95.0 °F - 50.0 °F 22% 29.99 in 10.0 mi SSE 11.5 mph - N/A   Partly Cloudy
5:52 PM 93.0 °F 90.6 °F 53.1 °F 26% 29.98 in 10.0 mi SE 11.5 mph 18.4 mph N/A   Partly Cloudy
6:52 PM 89.1 °F 86.9 °F 54.0 °F 30% 29.98 in 10.0 mi SE 8.1 mph - N/A   Partly Cloudy
7:52 PM 84.0 °F 82.9 °F 55.0 °F 37% 29.99 in 10.0 mi SE 6.9 mph - N/A   Clear
8:52 PM 82.0 °F 81.6 °F 55.9 °F 41% 30.00 in 10.0 mi SE 9.2 mph - N/A   Clear
9:52 PM 81.0 °F 80.7 °F 55.0 °F 41% 29.99 in 10.0 mi SE 10.4 mph - N/A   Clear
10:52 PM 79.0 °F - 55.0 °F 44% 30.00 in 10.0 mi SE 8.1 mph - N/A   Clear
11:52 PM 79.0 °F - 55.0 °F 44% 30.01 in 10.0 mi SSE 9.2 mph - N/A   Clear